| time (UTC) | temp F | wind direction | speed knots | gust knots | rain 1hr in | rain 24hr in | rain mn in | humidity % | barometer mb |
| 20260902143048 | 74 | 246 | 2.6 | 6.1 | 0.00 | 0.00 | 0.00 | 36 | 1008.2 |
| 20260902141544 | 70 | 235 | 0.9 | 4.3 | 0.00 | 0.00 | 0.00 | 43 | 1008.0 |
| 20260902140041 | 68 | 232 | 0.0 | 2.6 | 0.00 | 0.00 | 0.00 | 47 | 1008.2 |
| 20260902134549 | 67 | 196 | 0.9 | 3.5 | 0.00 | 0.00 | 0.00 | 47 | 1008.1 |
| 20260902133039 | 66 | 319 | 0.0 | 1.7 | 0.00 | 0.00 | 0.00 | 49 | 1008.0 |
| 20260902131543 | 63 | 319 | 0.0 | 2.6 | 0.00 | 0.00 | 0.00 | 52 | 1007.9 |
| 20260902130040 | 62 | 272 | 0.0 | 0.9 | 0.00 | 0.00 | 0.00 | 53 | 1007.7 |
| 20260902124533 | 62 | 271 | 0.0 | 1.7 | 0.00 | 0.00 | 0.00 | 53 | 1007.5 |
| 20260902123034 | 62 | 271 | 0.0 | 1.7 | 0.00 | 0.00 | 0.00 | 53 | 1007.3 |
| 20260902121530 | 63 | 277 | 0.0 | 1.7 | 0.00 | 0.00 | 0.00 | 53 | 1007.2 |
| 20260902120028 | 63 | 230 | 0.0 | 2.6 | 0.00 | 0.00 | 0.00 | 52 | 1007.1 |
| 20260902114529 | 63 | 327 | 0.0 | 3.5 | 0.00 | 0.00 | 0.00 | 53 | 1006.9 |
| 20260902113025 | 64 | 277 | 0.0 | 1.7 | 0.00 | 0.00 | 0.00 | 53 | 1006.8 |
| 20260902111523 | 64 | 305 | 0.9 | 7.0 | 0.00 | 0.00 | 0.00 | 53 | 1006.6 |
| 20260902110036 | 62 | 302 | 0.0 | 2.6 | 0.00 | 0.00 | 0.00 | 59 | 1006.5 |
| 20260902104521 | 61 | 283 | 0.0 | 1.7 | 0.00 | 0.00 | 0.00 | 62 | 1006.5 |
| 20260902103020 | 61 | 287 | 0.0 | 1.7 | 0.00 | 0.00 | 0.00 | 63 | 1006.5 |
| 20260902101520 | 62 | 235 | 0.0 | 0.0 | 0.00 | 0.00 | 0.00 | 63 | 1006.5 |
| 20260902100018 | 62 | 235 | 0.0 | 1.7 | 0.00 | 0.00 | 0.00 | 64 | 1006.4 |
| 20260902094522 | 62 | 233 | 0.0 | 2.6 | 0.00 | 0.00 | 0.00 | 67 | 1006.5 |
| 20260902093028 | 61 | 194 | 0.0 | 0.9 | 0.00 | 0.00 | 0.00 | 73 | 1006.3 |
| 20260902091514 | 61 | 194 | 0.0 | 0.0 | 0.00 | 0.00 | 0.00 | 72 | 1006.4 |
| 20260902090011 | 62 | 194 | 0.0 | 2.6 | 0.00 | 0.00 | 0.00 | 71 | 1006.5 |
| 20260902084518 | 62 | 194 | 0.0 | 0.0 | 0.00 | 0.00 | 0.00 | 72 | 1006.4 |
| 20260902083008 | 63 | 194 | 0.0 | 0.0 | 0.00 | 0.00 | 0.00 | 72 | 1006.4 |
| 20260902081506 | 64 | 194 | 0.0 | 0.0 | 0.00 | 0.00 | 0.00 | 70 | 1006.4 |
| 20260902080004 | 64 | 194 | 0.0 | 1.7 | 0.00 | 0.00 | 0.00 | 69 | 1006.7 |
| 20260902074503 | 65 | 346 | 0.0 | 0.0 | 0.00 | 0.00 | 0.00 | 69 | 1006.6 |
| 20260902073103 | 66 | 346 | 0.0 | 0.0 | 0.00 | 0.00 | 0.00 | 67 | 1006.6 |
| 20260902071557 | 67 | 346 | 0.0 | 1.7 | 0.00 | 0.00 | 0.00 | 65 | 1006.6 |
| 20260902070054 | 68 | 346 | 0.0 | 3.5 | 0.00 | 0.00 | 0.00 | 63 | 1006.4 |
| 20260902064554 | 68 | 347 | 3.5 | 7.8 | 0.00 | 0.00 | 0.00 | 63 | 1006.2 |
| 20260902063050 | 68 | 1 | 3.5 | 7.0 | 0.00 | 0.00 | 0.00 | 61 | 1006.2 |
| 20260902061559 | 69 | 356 | 2.6 | 4.3 | 0.00 | 0.00 | 0.00 | 60 | 1006.1 |
| 20260902060055 | 69 | 24 | 4.3 | 5.2 | 0.00 | 0.00 | 0.00 | 59 | 1006.2 |
| 20260902054605 | 70 | 33 | 1.7 | 6.1 | 0.00 | 0.00 | 0.00 | 59 | 1006.5 |
| 20260902053059 | 70 | 28 | 4.3 | 7.8 | 0.00 | 0.00 | 0.00 | 58 | 1006.2 |
| 20260902051543 | 71 | 351 | 0.9 | 2.6 | 0.00 | 0.00 | 0.00 | 55 | 1006.0 |
| 20260902050045 | 73 | 141 | 0.0 | 1.7 | 0.00 | 0.00 | 0.00 | 53 | 1006.0 |
| 20260902044543 | 73 | 139 | 1.7 | 4.3 | 0.00 | 0.00 | 0.00 | 52 | 1005.9 |
| 20260902043045 | 74 | 175 | 0.9 | 3.5 | 0.00 | 0.00 | 0.00 | 51 | 1005.9 |
| 20260902041546 | 75 | 132 | 1.7 | 3.5 | 0.00 | 0.00 | 0.00 | 49 | 1006.1 |
| 20260902040048 | 76 | 135 | 3.5 | 7.0 | 0.00 | 0.00 | 0.00 | 48 | 1006.3 |
| 20260902034541 | 75 | 119 | 6.1 | 10.4 | 0.00 | 0.00 | 0.00 | 49 | 1005.9 |
| 20260902033040 | 75 | 67 | 3.5 | 10.4 | 0.00 | 0.00 | 0.00 | 50 | 1006.0 |
| 20260902031544 | 76 | 126 | 2.6 | 7.0 | 0.00 | 0.00 | 0.00 | 46 | 1006.4 |
| 20260902030039 | 77 | 140 | 0.0 | 4.3 | 0.00 | 0.00 | 0.00 | 45 | 1006.4 |
| 20260902024541 | 77 | 70 | 3.5 | 9.6 | 0.00 | 0.00 | 0.00 | 46 | 1005.8 |
| 20260902023044 | 77 | 80 | 5.2 | 11.3 | 0.00 | 0.00 | 0.00 | 46 | 1005.5 |
| 20260902021538 | 77 | 59 | 6.1 | 10.4 | 0.00 | 0.00 | 0.00 | 48 | 1005.1 |
| 20260902020039 | 77 | 117 | 4.3 | 12.2 | 0.00 | 0.00 | 0.00 | 48 | 1004.8 |
| 20260902014538 | 78 | 133 | 5.2 | 15.6 | 0.00 | 0.00 | 0.00 | 46 | 1004.8 |
| 20260902013043 | 79 | 97 | 7.0 | 15.6 | 0.00 | 0.00 | 0.00 | 42 | 1004.8 |
| 20260902011537 | 80 | 84 | 3.5 | 9.6 | 0.00 | 0.00 | 0.00 | 38 | 1004.8 |
| 20260902010036 | 80 | 83 | 4.3 | 9.6 | 0.00 | 0.00 | 0.00 | 37 | 1004.6 |
| 20260902004536 | 81 | 128 | 5.2 | 8.7 | 0.00 | 0.00 | 0.00 | 38 | 1004.6 |
| 20260902003039 | 81 | 114 | 4.3 | 10.4 | 0.00 | 0.00 | 0.00 | 38 | 1004.7 |
| 20260902001552 | 81 | 142 | 7.0 | 13.9 | 0.00 | 0.00 | 0.00 | 38 | 1004.7 |
| 20260902000038 | 82 | 122 | 9.6 | 14.8 | 0.00 | 0.00 | 0.00 | 37 | 1004.6 |
| 20260901234534 | 84 | 111 | 7.8 | 16.5 | 0.00 | 0.00 | 0.00 | 36 | 1004.6 |
| 20260901233035 | 86 | 106 | 8.7 | 15.6 | 0.00 | 0.00 | 0.00 | 29 | 1004.5 |
| 20260901231531 | 86 | 107 | 8.7 | 20.9 | 0.00 | 0.00 | 0.00 | 30 | 1004.4 |
| 20260901230031 | 87 | 82 | 12.2 | 15.6 | 0.00 | 0.00 | 0.00 | 31 | 1004.7 |
| 20260901224529 | 87 | 129 | 3.5 | 9.6 | 0.00 | 0.00 | 0.00 | 30 | 1004.9 |
| 20260901223027 | 86 | 107 | 5.2 | 10.4 | 0.00 | 0.00 | 0.00 | 30 | 1005.0 |
| 20260901221525 | 87 | 102 | 5.2 | 12.2 | 0.00 | 0.00 | 0.00 | 29 | 1005.2 |
| 20260901220023 | 86 | 126 | 7.8 | 12.2 | 0.00 | 0.00 | 0.00 | 30 | 1005.6 |
| 20260901214523 | 86 | 151 | 3.5 | 10.4 | 0.00 | 0.00 | 0.00 | 29 | 1005.5 |
| 20260901213020 | 85 | 198 | 5.2 | 13.9 | 0.00 | 0.00 | 0.00 | 29 | 1005.7 |
| 20260901211519 | 86 | 145 | 4.3 | 9.6 | 0.00 | 0.00 | 0.00 | 29 | 1005.8 |
| 20260901210017 | 85 | 141 | 6.1 | 10.4 | 0.00 | 0.00 | 0.00 | 29 | 1005.9 |
| 20260901204516 | 85 | 132 | 5.2 | 9.6 | 0.00 | 0.00 | 0.00 | 30 | 1006.0 |
| 20260901203015 | 84 | 178 | 4.3 | 13.0 | 0.00 | 0.00 | 0.00 | 31 | 1006.4 |
| 20260901201510 | 84 | 131 | 7.0 | 13.0 | 0.00 | 0.00 | 0.00 | 32 | 1006.5 |
| 20260901200008 | 83 | 131 | 3.5 | 12.2 | 0.00 | 0.00 | 0.00 | 36 | 1006.8 |
| 20260901194506 | 83 | 116 | 6.1 | 11.3 | 0.00 | 0.00 | 0.00 | 37 | 1007.0 |
| 20260901193005 | 82 | 112 | 9.6 | 13.9 | 0.00 | 0.00 | 0.00 | 41 | 1007.2 |
| 20260901191503 | 82 | 155 | 6.1 | 13.0 | 0.00 | 0.00 | 0.00 | 42 | 1007.4 |
| 20260901190003 | 82 | 123 | 5.2 | 10.4 | 0.00 | 0.00 | 0.00 | 42 | 1007.4 |
| 20260901184502 | 84 | 175 | 2.6 | 7.8 | 0.00 | 0.00 | 0.00 | 30 | 1007.5 |
| 20260901183102 | 83 | 286 | 3.5 | 10.4 | 0.00 | 0.00 | 0.00 | 31 | 1007.5 |
| 20260901181604 | 82 | 292 | 7.8 | 10.4 | 0.00 | 0.00 | 0.00 | 32 | 1007.4 |
| 20260901180054 | 80 | 320 | 4.3 | 12.2 | 0.00 | 0.00 | 0.00 | 38 | 1007.5 |
| 20260901174550 | 78 | 308 | 3.5 | 7.8 | 0.00 | 0.00 | 0.00 | 46 | 1007.9 |
| 20260901173057 | 76 | 41 | 6.1 | 8.7 | 0.00 | 0.00 | 0.00 | 53 | 1008.7 |
| 20260901171551 | 74 | 24 | 4.3 | 7.0 | 0.00 | 0.00 | 0.00 | 55 | 1008.9 |
| 20260901170044 | 73 | 42 | 2.6 | 5.2 | 0.00 | 0.00 | 0.00 | 56 | 1009.1 |
| 20260901164542 | 71 | 356 | 1.7 | 4.3 | 0.00 | 0.00 | 0.00 | 61 | 1009.1 |
| 20260901163032 | 69 | 290 | 1.7 | 7.8 | 0.00 | 0.00 | 0.00 | 66 | 1009.1 |
| 20260901161548 | 67 | 248 | 0.9 | 4.3 | 0.00 | 0.00 | 0.00 | 71 | 1009.0 |
| 20260901160032 | 66 | 328 | 1.7 | 3.5 | 0.00 | 0.00 | 0.00 | 73 | 1008.9 |
| 20260901154532 | 65 | 279 | 2.6 | 5.2 | 0.00 | 0.00 | 0.00 | 74 | 1008.6 |
| 20260901153029 | 64 | 293 | 1.7 | 3.5 | 0.00 | 0.00 | 0.00 | 79 | 1008.8 |
| 20260901151531 | 64 | 212 | 0.0 | 0.0 | 0.00 | 0.00 | 0.00 | 82 | 1008.8 |
| 20260901150037 | 63 | 212 | 0.0 | 0.0 | 0.00 | 0.00 | 0.00 | 83 | 1008.9 |
| 20260901144537 | 63 | 212 | 0.9 | 3.5 | 0.00 | 0.00 | 0.00 | 83 | 1009.2 |